Time,TemperatureF,DewpointF,PressureIn,WindDirection,WindDirectionDegrees,WindSpeedMPH,WindSpeedGustMPH,Humidity,HourlyPrecipIn,Conditions,Clouds,dailyrainin,SoftwareType,DateUTC
2013-09-04 00:12:00,66.6,53.2,29.69,NNW,337,2.7,-999.0,62,-99.99,,,0.00,Acu-Link.com,2013-09-04 04:12:00,
2013-09-04 00:28:00,66.0,52.6,29.69,West,270,3.7,-999.0,62,-99.99,,,0.00,Acu-Link.com,2013-09-04 04:28:00,
2013-09-04 00:43:00,65.1,53.0,29.68,NW,315,1.7,-999.0,65,-99.99,,,0.00,Acu-Link.com,2013-09-04 04:43:00,
2013-09-04 00:58:00,64.8,52.8,29.68,WNW,292,2.2,-999.0,65,-99.99,,,0.00,Acu-Link.com,2013-09-04 04:58:00,
2013-09-04 01:13:00,64.9,52.8,29.69,NW,315,2.2,-999.0,65,-99.99,,,0.00,Acu-Link.com,2013-09-04 05:13:00,
2013-09-04 01:28:00,64.0,52.4,29.69,NW,315,1.7,-999.0,66,-99.99,,,0.00,Acu-Link.com,2013-09-04 05:28:00,
2013-09-04 01:44:00,63.5,52.7,29.70,West,270,0.0,-999.0,68,-99.99,,,0.00,Acu-Link.com,2013-09-04 05:44:00,
2013-09-04 01:59:00,64.2,53.0,29.70,NW,315,2.2,-999.0,67,-99.99,,,0.00,Acu-Link.com,2013-09-04 05:59:00,
2013-09-04 02:15:00,63.1,52.8,29.70,NNW,337,0.0,-999.0,69,-99.99,,,0.00,Acu-Link.com,2013-09-04 06:15:00,
2013-09-04 02:30:00,62.2,52.3,29.72,West,270,2.2,-999.0,70,-99.99,,,0.00,Acu-Link.com,2013-09-04 06:30:00,
2013-09-04 02:46:00,62.1,52.6,29.71,WNW,292,1.7,-999.0,71,-99.99,,,0.00,Acu-Link.com,2013-09-04 06:46:00,
2013-09-04 03:01:00,62.1,53.0,29.71,WNW,292,2.2,-999.0,72,-99.99,,,0.00,Acu-Link.com,2013-09-04 07:01:00,
2013-09-04 03:16:00,61.9,52.8,29.72,NE,45,0.0,-999.0,72,-99.99,,,0.00,Acu-Link.com,2013-09-04 07:16:00,
2013-09-04 03:31:00,61.3,52.6,29.72,West,270,1.7,-999.0,73,-99.99,,,0.00,Acu-Link.com,2013-09-04 07:31:00,
2013-09-04 03:47:00,61.0,52.7,29.73,WNW,292,2.2,-999.0,74,-99.99,,,0.00,Acu-Link.com,2013-09-04 07:47:00,
2013-09-04 04:04:00,60.8,52.5,29.73,WNW,292,1.1,-999.0,74,-99.99,,,0.00,Acu-Link.com,2013-09-04 08:04:00,
2013-09-04 04:19:00,60.6,52.6,29.73,WNW,292,1.1,-999.0,75,-99.99,,,0.00,Acu-Link.com,2013-09-04 08:19:00,
2013-09-04 04:35:00,60.6,52.6,29.73,WNW,292,1.7,-999.0,75,-99.99,,,0.00,Acu-Link.com,2013-09-04 08:35:00,
2013-09-04 04:50:00,60.3,52.7,29.73,West,270,1.7,-999.0,76,-99.99,,,0.00,Acu-Link.com,2013-09-04 08:50:00,
2013-09-04 05:05:00,59.9,52.7,29.74,West,270,2.7,-999.0,77,-99.99,,,0.00,Acu-Link.com,2013-09-04 09:05:00,
2013-09-04 05:20:00,60.3,53.1,29.74,West,270,3.2,-999.0,77,-99.99,,,0.00,Acu-Link.com,2013-09-04 09:20:00,
2013-09-04 05:35:00,60.4,53.2,29.75,West,270,2.7,-999.0,77,-99.99,,,0.00,Acu-Link.com,2013-09-04 09:35:00,
2013-09-04 05:51:00,60.4,53.2,29.75,West,270,2.7,-999.0,77,-99.99,,,0.00,Acu-Link.com,2013-09-04 09:51:00,
2013-09-04 06:06:00,60.3,53.1,29.76,WNW,292,2.7,-999.0,77,-99.99,,,0.00,Acu-Link.com,2013-09-04 10:06:00,
2013-09-04 06:21:00,60.1,53.2,29.76,NE,45,1.7,-999.0,78,-99.99,,,0.00,Acu-Link.com,2013-09-04 10:21:00,
2013-09-04 06:36:00,59.9,53.4,29.77,NW,315,1.7,-999.0,79,-99.99,,,0.00,Acu-Link.com,2013-09-04 10:36:00,
2013-09-04 06:51:00,60.1,53.6,29.78,NNW,337,1.7,-999.0,79,-99.99,,,0.00,Acu-Link.com,2013-09-04 10:51:00,
2013-09-04 07:07:00,60.3,53.8,29.79,NW,315,2.2,-999.0,79,-99.99,,,0.00,Acu-Link.com,2013-09-04 11:07:00,
2013-09-04 07:22:00,61.3,54.0,29.79,NW,315,2.2,-999.0,77,-99.99,,,0.00,Acu-Link.com,2013-09-04 11:22:00,
2013-09-04 07:38:00,61.5,54.2,29.80,West,270,3.7,-999.0,77,-99.99,,,0.00,Acu-Link.com,2013-09-04 11:38:00,
2013-09-04 07:53:00,62.4,54.7,29.80,WNW,292,4.2,-999.0,76,-99.99,,,0.00,Acu-Link.com,2013-09-04 11:53:00,
2013-09-04 08:08:00,63.5,55.1,29.80,SW,225,2.7,-999.0,74,-99.99,,,0.00,Acu-Link.com,2013-09-04 12:08:00,
2013-09-04 08:23:00,66.0,55.5,29.80,West,270,3.7,-999.0,69,-99.99,,,0.00,Acu-Link.com,2013-09-04 12:23:00,
2013-09-04 08:39:00,68.0,55.8,29.81,North,0,2.7,-999.0,65,-99.99,,,0.00,Acu-Link.com,2013-09-04 12:39:00,
2013-09-04 08:54:00,69.3,56.2,29.81,NNE,22,4.7,-999.0,63,-99.99,,,0.00,Acu-Link.com,2013-09-04 12:54:00,
2013-09-04 09:09:00,70.9,56.8,29.81,SW,225,4.2,-999.0,61,-99.99,,,0.00,Acu-Link.com,2013-09-04 13:09:00,
2013-09-04 09:24:00,72.5,56.9,29.81,NNW,337,3.7,-999.0,58,-99.99,,,0.00,Acu-Link.com,2013-09-04 13:24:00,
2013-09-04 09:40:00,72.7,56.1,29.81,North,0,2.7,-999.0,56,-99.99,,,0.00,Acu-Link.com,2013-09-04 13:40:00,
2013-09-04 09:55:00,70.9,54.9,29.80,WNW,292,2.7,-999.0,57,-99.99,,,0.00,Acu-Link.com,2013-09-04 13:55:00,
2013-09-04 10:10:00,72.0,55.4,29.81,West,270,3.2,-999.0,56,-99.99,,,0.00,Acu-Link.com,2013-09-04 14:10:00,
2013-09-04 10:26:00,73.0,55.9,29.81,West,270,4.2,-999.0,55,-99.99,,,0.00,Acu-Link.com,2013-09-04 14:26:00,
2013-09-04 10:42:00,73.8,56.1,29.81,WNW,292,1.1,-999.0,54,-99.99,,,0.00,Acu-Link.com,2013-09-04 14:42:00,
2013-09-04 10:57:00,75.2,56.9,29.80,South,180,3.2,-999.0,53,-99.99,,,0.00,Acu-Link.com,2013-09-04 14:57:00,
2013-09-04 11:12:00,75.4,56.0,29.81,NNE,22,2.7,-999.0,51,-99.99,,,0.00,Acu-Link.com,2013-09-04 15:12:00,
2013-09-04 11:28:00,76.3,56.8,29.81,NNW,337,2.7,-999.0,51,-99.99,,,0.00,Acu-Link.com,2013-09-04 15:28:00,
2013-09-04 11:43:00,77.0,55.8,29.80,ENE,67,2.7,-999.0,48,-99.99,,,0.00,Acu-Link.com,2013-09-04 15:43:00,
2013-09-04 11:58:00,77.0,54.6,29.80,NW,315,4.7,-999.0,46,-99.99,,,0.00,Acu-Link.com,2013-09-04 15:58:00,
2013-09-04 12:14:00,77.9,54.2,29.79,NE,45,3.7,-999.0,44,-99.99,,,0.00,Acu-Link.com,2013-09-04 16:14:00,
2013-09-04 12:29:00,78.1,55.6,29.78,ENE,67,3.2,-999.0,46,-99.99,,,0.00,Acu-Link.com,2013-09-04 16:29:00,
2013-09-04 12:44:00,78.3,55.2,29.78,NNE,22,2.2,-999.0,45,-99.99,,,0.00,Acu-Link.com,2013-09-04 16:44:00,
2013-09-04 12:59:00,79.5,55.0,29.78,West,270,2.2,-999.0,43,-99.99,,,0.00,Acu-Link.com,2013-09-04 16:59:00,
2013-09-04 13:14:00,78.8,55.0,29.78,NW,315,2.7,-999.0,44,-99.99,,,0.00,Acu-Link.com,2013-09-04 17:14:00,
2013-09-04 13:30:00,80.8,54.9,29.77,WSW,247,4.2,-999.0,41,-99.99,,,0.00,Acu-Link.com,2013-09-04 17:30:00,
2013-09-04 13:45:00,81.5,51.9,29.77,NNW,337,5.8,-999.0,36,-99.99,,,0.00,Acu-Link.com,2013-09-04 17:45:00,
2013-09-04 14:00:00,82.0,52.4,29.76,West,270,4.2,-999.0,36,-99.99,,,0.00,Acu-Link.com,2013-09-04 18:00:00,
2013-09-04 14:15:00,82.0,52.4,29.76,WSW,247,6.8,-999.0,36,-99.99,,,0.00,Acu-Link.com,2013-09-04 18:15:00,
2013-09-04 14:30:00,82.6,50.6,29.75,WSW,247,1.7,-999.0,33,-99.99,,,0.00,Acu-Link.com,2013-09-04 18:30:00,
2013-09-04 14:46:00,82.6,50.6,29.75,SSE,157,3.2,-999.0,33,-99.99,,,0.00,Acu-Link.com,2013-09-04 18:46:00,
2013-09-04 15:01:00,82.9,49.1,29.74,WSW,247,6.8,-999.0,31,-99.99,,,0.00,Acu-Link.com,2013-09-04 19:01:00,
2013-09-04 15:16:00,83.8,52.4,29.74,West,270,6.3,-999.0,34,-99.99,,,0.00,Acu-Link.com,2013-09-04 19:16:00,
2013-09-04 15:31:00,83.1,52.6,29.73,North,0,3.2,-999.0,35,-99.99,,,0.00,Acu-Link.com,2013-09-04 19:31:00,
2013-09-04 15:47:00,83.8,54.0,29.73,NW,315,3.7,-999.0,36,-99.99,,,0.00,Acu-Link.com,2013-09-04 19:47:00,
2013-09-04 16:02:00,83.8,53.2,29.73,WNW,292,3.2,-999.0,35,-99.99,,,0.00,Acu-Link.com,2013-09-04 20:02:00,
2013-09-04 16:17:00,83.5,52.9,29.73,West,270,6.3,-999.0,35,-99.99,,,0.00,Acu-Link.com,2013-09-04 20:17:00,
2013-09-04 16:32:00,84.0,52.6,29.73,SW,225,6.8,-999.0,34,-99.99,,,0.00,Acu-Link.com,2013-09-04 20:32:00,
2013-09-04 16:47:00,81.9,51.5,29.73,NE,45,1.7,-999.0,35,-99.99,,,0.00,Acu-Link.com,2013-09-04 20:47:00,
2013-09-04 17:03:00,83.7,52.3,29.72,SW,225,5.8,-999.0,34,-99.99,,,0.00,Acu-Link.com,2013-09-04 21:03:00,
2013-09-04 17:18:00,84.0,52.6,29.72,NW,315,1.7,-999.0,34,-99.99,,,0.00,Acu-Link.com,2013-09-04 21:18:00,
2013-09-04 17:33:00,83.5,51.3,29.73,SW,225,6.8,-999.0,33,-99.99,,,0.00,Acu-Link.com,2013-09-04 21:33:00,
2013-09-04 17:48:00,82.4,52.7,29.73,NW,315,3.7,-999.0,36,-99.99,,,0.00,Acu-Link.com,2013-09-04 21:48:00,
2013-09-04 18:03:00,81.9,52.3,29.73,SW,225,2.7,-999.0,36,-99.99,,,0.00,Acu-Link.com,2013-09-04 22:03:00,
2013-09-04 18:19:00,81.9,53.0,29.72,SW,225,2.7,-999.0,37,-99.99,,,0.00,Acu-Link.com,2013-09-04 22:19:00,
2013-09-04 18:34:00,84.7,54.8,29.72,WSW,247,6.3,-999.0,36,-99.99,,,0.00,Acu-Link.com,2013-09-04 22:34:00,
2013-09-04 18:50:00,82.2,54.0,29.73,WNW,292,4.2,-999.0,38,-99.99,,,0.00,Acu-Link.com,2013-09-04 22:50:00,
2013-09-04 19:05:00,81.7,55.0,29.73,West,270,3.7,-999.0,40,-99.99,,,0.00,Acu-Link.com,2013-09-04 23:05:00,
2013-09-04 19:20:00,79.7,51.8,29.73,South,180,4.7,-999.0,38,-99.99,,,0.00,Acu-Link.com,2013-09-04 23:20:00,
2013-09-04 19:35:00,77.5,51.3,29.73,West,270,3.7,-999.0,40,-99.99,,,0.00,Acu-Link.com,2013-09-04 23:35:00,
2013-09-04 19:51:00,76.3,51.5,29.73,SW,225,2.2,-999.0,42,-99.99,,,0.00,Acu-Link.com,2013-09-04 23:51:00,
2013-09-04 20:06:00,75.0,51.6,29.73,SW,225,0.0,-999.0,44,-99.99,,,0.00,Acu-Link.com,2013-09-05 00:06:00,
2013-09-04 20:21:00,73.6,52.1,29.74,West,270,1.1,-999.0,47,-99.99,,,0.00,Acu-Link.com,2013-09-05 00:21:00,
2013-09-04 20:36:00,72.7,53.0,29.74,SW,225,0.0,-999.0,50,-99.99,,,0.00,Acu-Link.com,2013-09-05 00:36:00,
2013-09-04 20:51:00,72.1,53.0,29.74,WSW,247,1.1,-999.0,51,-99.99,,,0.00,Acu-Link.com,2013-09-05 00:51:00,
2013-09-04 21:07:00,71.6,53.0,29.75,West,270,1.7,-999.0,52,-99.99,,,0.00,Acu-Link.com,2013-09-05 01:07:00,
2013-09-04 21:22:00,71.8,53.2,29.75,West,270,1.1,-999.0,52,-99.99,,,0.00,Acu-Link.com,2013-09-05 01:22:00,
2013-09-04 21:37:00,71.4,53.4,29.75,WSW,247,1.1,-999.0,53,-99.99,,,0.00,Acu-Link.com,2013-09-05 01:37:00,
2013-09-04 21:52:00,70.7,52.7,29.75,WSW,247,2.2,-999.0,53,-99.99,,,0.00,Acu-Link.com,2013-09-05 01:52:00,
2013-09-04 22:07:00,70.7,53.2,29.76,SSW,202,2.2,-999.0,54,-99.99,,,0.00,Acu-Link.com,2013-09-05 02:07:00,
2013-09-04 22:23:00,70.3,52.9,29.76,West,270,2.2,-999.0,54,-99.99,,,0.00,Acu-Link.com,2013-09-05 02:23:00,
2013-09-04 22:38:00,70.0,53.1,29.77,West,270,3.2,-999.0,55,-99.99,,,0.00,Acu-Link.com,2013-09-05 02:38:00,
2013-09-04 22:53:00,69.4,52.5,29.77,West,270,1.7,-999.0,55,-99.99,,,0.00,Acu-Link.com,2013-09-05 02:53:00,
2013-09-04 23:08:00,69.3,52.9,29.77,West,270,3.2,-999.0,56,-99.99,,,0.00,Acu-Link.com,2013-09-05 03:08:00,
2013-09-04 23:23:00,69.4,53.0,29.77,SW,225,3.2,-999.0,56,-99.99,,,0.00,Acu-Link.com,2013-09-05 03:23:00,
2013-09-04 23:39:00,69.3,52.9,29.77,West,270,3.7,-999.0,56,-99.99,,,0.00,Acu-Link.com,2013-09-05 03:39:00,
2013-09-04 23:54:00,69.1,53.2,29.76,WSW,247,4.7,-999.0,57,-99.99,,,0.00,Acu-Link.com,2013-09-05 03:54:00,